Regional Weather Roundup
Issued by NWS

Home | Current Version | Previous Version | Graphics & Text | Print | Product List | Glossary On
Versions: 1 2 3 4 5 6 7 8 9 10 11 12 13 14 15 16 17 18 19 20 21 22 23 24 25 26 27 28 29 30 31 32 33 34 35 36 37 38 39 40 41 42 43 44 45 46 47 48 49
000
ASUS45 KBOU 261907
RWRCO

WEATHER ROUNDUP FOR COLORADO
NATIONAL WEATHER SERVICE DENVER/BOULDER CO
100 PM MDT TUE MAY 26 2015

NOTE: "FAIR" INDICATES FEW OR NO CLOUDS BELOW 12000 FEET WITH NO
SIGNIFICANT WEATHER AND/OR OBSTRUCTIONS TO VISIBILITY.

COZ001>005-013-030-031-262000-
...NORTHWEST COLORADO...

CITY           SKY/WX    TMP DP  RH WIND       PRES   REMARKS
CRAIG          PTSUNNY   64  43  46 W8G22     30.08F
HAYDEN         MOSUNNY   59  39  47 W7        30.10S
MEEKER         HVY RAIN  49  44  83 W10       30.16R
MOUNT WERNER   NOT AVBL
STEAMBOAT SPGS MOSUNNY   56  42  59 E6        30.12F
WALDEN         PTSUNNY   54  34  47 NW9       30.15S
$$

COZ006>008-011-262000-
...WEST CENTRAL VALLEYS...

CITY           SKY/WX    TMP DP  RH WIND       PRES   REMARKS
GRAND JUNCTION PTSUNNY   66  43  43 SE5       30.03F
MONTROSE       PTSUNNY   70  37  29 VRB6      30.08F
EAGLE          MOSUNNY   61  41  48 W6        30.12F
RIFLE          PTSUNNY   66  44  45 W5        30.07F
DELTA          PTSUNNY   71  39  31 MISG      30.06S THUNDER
NUCLA          CLOUDY    64  41  42 N9        30.12F
$$

COZ017>023-064>068-262000-
...SOUTHWEST COLORADO...

CITY           SKY/WX    TMP DP  RH WIND       PRES   REMARKS
DURANGO        MOSUNNY   66  42  41 W8        30.15F
CORTEZ         PTSUNNY   66  40  38 W7        30.12F
PAGOSA SPRINGS MOSUNNY   59  34  39 S5        30.19F THUNDER
TELLURIDE      NOT AVBL
WOLF CREEK PAS NOT AVBL
$$

COZ009-010-012-014-032>034-037-058>063-262000-
...CENTRAL COLORADO...

CITY           SKY/WX    TMP DP  RH WIND       PRES   REMARKS
ASPEN          PTSUNNY   57  36  45 VRB3      30.15F
BUENA VISTA    MOSUNNY   62  25  24 W7        30.14F
COPPER MTN     PTSUNNY   37  30  75 SW8       30.35F
BERTHOUD PASS  FLURRIES  30  21  69 W16G23    30.36S WCI  19
COTTONWOOD PAS MOSUNNY   59  23  25 W5        30.24F
GUNNISON       PTSUNNY   57  34  41 NE8       30.19F
KREMMLING      CLOUDY    54  37  54 NE13G20   30.17F
LEADVILLE      MOSUNNY   48  29  47 NW10G23   30.23F
MONARCH PASS   PTSUNNY   36  27  69 W26G37    30.44F
SALIDA         MOSUNNY   67  29  23 W6G21     30.19F
SUNLIGHT       PTSUNNY   45  36  70 CALM      30.32S
WILKERSON PASS LGT RAIN  41  28  60 SW3       30.33S
$$

COZ069>075-262000-
...SAN LUIS VALLEY/SANGRE DE CRISTO MOUNTAINS...

CITY           SKY/WX    TMP DP  RH WIND       PRES   REMARKS
ALAMOSA        MOSUNNY   62  30  29 VRB7      30.17F
LA VETA PASS   MOSUNNY  N/A N/A N/A MISG      30.29S
SAGUACHE       PTSUNNY   59  34  38 SW8G17    30.17F
$$

COZ035-036-038>040-262000-
...NORTHERN COLORADO FRONT RANGE...

CITY           SKY/WX    TMP DP  RH WIND       PRES   REMARKS
DENVER INTL AP PTSUNNY   69  41  36 N8        30.04F
DMNS CITY PARK   N/A     70  38  31 SW6       30.01F
AURORA         MOSUNNY   67  38  34 VRB5      30.05F
FRONT RANGE AP MOSUNNY   66  37  34 CALM      30.06F
ERIE MUNI ARPT   N/A     69  38  32 CALM      30.02F
BOULDER MUN AP MOSUNNY   70  41  35 E9        30.01F
CENTENNIAL     MOSUNNY   67  39  35 VRB5      30.05F
BROOMFIELD     PTSUNNY   68  37  32 CALM      30.05F
FORT COLLINS   MOSUNNY   66  48  52 SW6       30.04S
LONGMONT       MOSUNNY   71  43  35 SE3       30.03F
$$

COZ041-046-047-076>085-087-088-262000-
...PIKES PEAK/PALMER DIVIDE AND SOUTHERN FOOTHILLS...

CITY           SKY/WX    TMP DP  RH WIND       PRES   REMARKS
COLO. SPRINGS  PTSUNNY   62  41  46 S8        30.10F
A. F. ACADEMY  PTSUNNY   63  42  47 SE12G20   30.09F
ELLICOTT       PTSUNNY  N/A N/A N/A S9        30.09F
FALCON         CLOUDY    63  41  44 S12       30.14S
FORT CARSON    PTSUNNY   64  46  52 S8        30.09S
LIMON          CLOUDY    62  45  53 S3        30.08F
MONUMENT HILL    N/A     59  39  47 N9G17     30.13
TRINIDAD       PTSUNNY   66  44  45 VRB3      30.08F
$$

COZ042>045-048>051-090-091-262000-
...NORTHEAST COLORADO...

CITY           SKY/WX    TMP DP  RH WIND       PRES   REMARKS
GREELEY ARPT   SUNNY     70  48  46 S10       30.03F
AKRON          MOSUNNY   66  47  50 NE7       30.04F
BURLINGTON     PTSUNNY   70  48  45 MISG      30.03F
WRAY           CLOUDY    66  51  57 N6        30.03S
STERLING       PTSUNNY   68  50  52 W5        30.00F
HOLYOKE        MOSUNNY   66  52  59 NW3       30.03S
FORT MORGAN    SUNNY     67  46  47 SE3       30.03F
$$

COZ086-089-092>099-262000-
...SOUTHEAST COLORADO...

CITY           SKY/WX    TMP DP  RH WIND       PRES   REMARKS
PUEBLO         MOSUNNY   69  48  47 E9        30.03F
LA JUNTA       SUNNY     70  46  42 E3        30.04F
LAMAR          MOSUNNY   72  50  45 NW10      30.01F
SPRINGFIELD      N/A     70  47  43 N6        30.04S
$$


USA.gov is the U.S. government's official web portal to all federal, state and local government web resources and services.